Time,TemperatureF,DewpointF,PressureIn,WindDirection,WindDirectionDegrees,WindSpeedMPH,WindSpeedGustMPH,Humidity,HourlyPrecipIn,Conditions,Clouds,dailyrainin,SoftwareType,DateUTC
2013-03-04 00:10:00,79.5,75.0,29.89,ENE,67,4.0,11.0,87,0.00,,,0.00,weatherlink.com 1.10,2013-03-04 04:10:00,
2013-03-04 00:25:00,79.4,75.0,29.89,East,83,3.0,12.0,87,0.00,,,0.00,weatherlink.com 1.10,2013-03-04 04:25:00,
2013-03-04 00:40:00,79.4,75.0,29.88,ENE,61,7.0,15.0,86,0.00,,,0.00,weatherlink.com 1.10,2013-03-04 04:40:00,
2013-03-04 00:55:00,79.3,75.0,29.88,East,79,5.0,12.0,86,0.00,,,0.00,weatherlink.com 1.10,2013-03-04 04:55:00,
2013-03-04 01:10:00,79.3,75.0,29.87,ESE,118,5.0,10.0,87,0.00,,,0.00,weatherlink.com 1.10,2013-03-04 05:10:00,
2013-03-04 01:25:00,79.1,75.0,29.87,ESE,110,7.0,11.0,87,0.00,,,0.00,weatherlink.com 1.10,2013-03-04 05:25:00,
2013-03-04 01:40:00,79.1,75.0,29.87,ESE,106,7.0,8.0,87,0.00,,,0.00,weatherlink.com 1.10,2013-03-04 05:40:00,
2013-03-04 01:55:00,79.0,75.0,29.86,ESE,103,4.0,9.0,87,0.00,,,0.00,weatherlink.com 1.10,2013-03-04 05:55:00,
2013-03-04 02:10:00,79.0,75.0,29.86,East,91,8.0,8.0,87,0.00,,,0.00,weatherlink.com 1.10,2013-03-04 06:10:00,
2013-03-04 02:25:00,79.0,75.0,29.86,East,88,6.0,10.0,87,0.00,,,0.00,weatherlink.com 1.10,2013-03-04 06:25:00,
2013-03-04 02:40:00,79.1,75.0,29.86,ESE,103,4.0,10.0,87,0.00,,,0.00,weatherlink.com 1.10,2013-03-04 06:40:00,
2013-03-04 02:55:00,79.2,75.0,29.86,East,88,6.0,7.0,86,0.00,,,0.00,weatherlink.com 1.10,2013-03-04 06:55:00,
2013-03-04 03:10:00,79.3,75.0,29.86,ENE,73,7.0,8.0,86,0.00,,,0.00,weatherlink.com 1.10,2013-03-04 07:10:00,
2013-03-04 03:25:00,79.3,75.0,29.86,East,94,2.0,9.0,86,0.00,,,0.00,weatherlink.com 1.10,2013-03-04 07:25:00,
2013-03-04 03:40:00,79.4,75.0,29.86,ESE,111,4.0,8.0,86,0.00,,,0.00,weatherlink.com 1.10,2013-03-04 07:40:00,
2013-03-04 03:55:00,79.3,75.0,29.86,ESE,105,4.0,10.0,86,0.00,,,0.00,weatherlink.com 1.10,2013-03-04 07:55:00,
2013-03-04 04:10:00,79.2,75.0,29.86,ESE,103,3.0,8.0,86,0.00,,,0.00,weatherlink.com 1.10,2013-03-04 08:10:00,
2013-03-04 04:25:00,79.2,75.0,29.86,East,91,6.0,7.0,86,0.00,,,0.00,weatherlink.com 1.10,2013-03-04 08:25:00,
2013-03-04 04:40:00,79.2,75.0,29.87,East,87,2.0,8.0,86,0.00,,,0.00,weatherlink.com 1.10,2013-03-04 08:40:00,
2013-03-04 04:55:00,79.2,75.0,29.86,ENE,72,2.0,9.0,87,0.00,,,0.00,weatherlink.com 1.10,2013-03-04 08:55:00,
2013-03-04 05:10:00,79.0,75.0,29.86,East,95,2.0,8.0,87,0.00,,,0.00,weatherlink.com 1.10,2013-03-04 09:10:00,
2013-03-04 05:25:00,78.9,75.0,29.86,East,88,8.0,9.0,87,0.00,,,0.00,weatherlink.com 1.10,2013-03-04 09:25:00,
2013-03-04 05:40:00,78.9,75.0,29.87,East,86,3.0,7.0,87,0.00,,,0.00,weatherlink.com 1.10,2013-03-04 09:40:00,
2013-03-04 05:55:00,79.0,75.0,29.88,ESE,111,5.0,6.0,88,0.00,,,0.00,weatherlink.com 1.10,2013-03-04 09:55:00,
2013-03-04 06:10:00,79.2,75.0,29.89,ENE,70,3.0,3.0,87,0.00,,,0.00,weatherlink.com 1.10,2013-03-04 10:10:00,
2013-03-04 06:25:00,79.3,75.0,29.90,East,99,1.0,5.0,87,0.00,,,0.00,weatherlink.com 1.10,2013-03-04 10:25:00,
2013-03-04 06:40:00,79.4,75.0,29.91,NE,45,1.0,5.0,87,0.00,,,0.00,weatherlink.com 1.10,2013-03-04 10:40:00,
2013-03-04 06:55:00,79.3,75.0,29.91,East,86,1.0,7.0,87,0.00,,,0.00,weatherlink.com 1.10,2013-03-04 10:55:00,
2013-03-04 07:10:00,79.3,75.0,29.92,East,79,1.0,7.0,87,0.00,,,0.00,weatherlink.com 1.10,2013-03-04 11:10:00,
2013-03-04 07:25:00,79.6,76.0,29.93,ENE,77,1.0,6.0,87,0.00,,,0.00,weatherlink.com 1.10,2013-03-04 11:25:00,
2013-03-04 07:40:00,80.2,76.0,29.93,East,98,5.0,7.0,86,0.00,,,0.00,weatherlink.com 1.10,2013-03-04 11:40:00,
2013-03-04 07:55:00,80.5,76.0,29.93,ESE,102,3.0,9.0,85,0.00,,,0.00,weatherlink.com 1.10,2013-03-04 11:55:00,
2013-03-04 08:10:00,80.4,75.0,29.93,ENE,77,7.0,10.0,84,0.00,,,0.00,weatherlink.com 1.10,2013-03-04 12:10:00,
2013-03-04 08:25:00,80.7,76.0,29.94,ENE,68,5.0,9.0,85,0.00,,,0.00,weatherlink.com 1.10,2013-03-04 12:25:00,
2013-03-04 08:40:00,81.8,76.0,29.94,ENE,71,7.0,15.0,83,0.00,,,0.00,weatherlink.com 1.10,2013-03-04 12:40:00,
2013-03-04 08:55:00,81.4,76.0,29.94,East,94,14.0,17.0,83,0.00,,,0.00,weatherlink.com 1.10,2013-03-04 12:55:00,
2013-03-04 09:10:00,82.1,77.0,29.94,East,90,11.0,15.0,83,0.00,,,0.00,weatherlink.com 1.10,2013-03-04 13:10:00,
2013-03-04 09:25:00,82.7,76.0,29.95,East,101,10.0,14.0,81,0.00,,,0.00,weatherlink.com 1.10,2013-03-04 13:25:00,
2013-03-04 09:40:00,82.9,77.0,29.95,East,80,6.0,17.0,81,0.00,,,0.00,weatherlink.com 1.10,2013-03-04 13:40:00,
2013-03-04 09:55:00,83.7,77.0,29.96,East,93,13.0,13.0,79,0.00,,,0.00,weatherlink.com 1.10,2013-03-04 13:55:00,
2013-03-04 10:10:00,83.6,76.0,29.96,ENE,69,5.0,17.0,78,0.00,,,0.00,weatherlink.com 1.10,2013-03-04 14:10:00,
2013-03-04 10:26:00,83.9,76.0,29.96,East,88,11.0,18.0,78,0.00,,,0.00,weatherlink.com 1.10,2013-03-04 14:26:00,
2013-03-04 10:41:00,84.1,76.0,29.96,ESE,103,10.0,16.0,77,0.00,,,0.00,weatherlink.com 1.10,2013-03-04 14:41:00,
2013-03-04 10:56:00,83.3,76.0,29.96,ENE,57,9.0,17.0,78,0.00,,,0.00,weatherlink.com 1.10,2013-03-04 14:56:00,
2013-03-04 11:11:00,83.0,76.0,29.96,SE,127,5.0,16.0,79,0.00,,,0.00,weatherlink.com 1.10,2013-03-04 15:11:00,
2013-03-04 11:26:00,83.6,76.0,29.95,ENE,74,8.0,14.0,78,0.00,,,0.00,weatherlink.com 1.10,2013-03-04 15:26:00,
2013-03-04 11:41:00,83.4,76.0,29.95,NE,53,8.0,17.0,78,0.00,,,0.00,weatherlink.com 1.10,2013-03-04 15:41:00,
2013-03-04 11:56:00,83.6,76.0,29.94,East,88,7.0,16.0,77,0.00,,,0.00,weatherlink.com 1.10,2013-03-04 15:56:00,
2013-03-04 12:11:00,83.2,76.0,29.93,ENE,76,3.0,17.0,79,0.00,,,0.00,weatherlink.com 1.10,2013-03-04 16:11:00,
2013-03-04 12:26:00,83.0,76.0,29.93,ENE,62,10.0,18.0,79,0.00,,,0.00,weatherlink.com 1.10,2013-03-04 16:26:00,
2013-03-04 12:56:00,83.0,76.0,29.92,East,84,9.0,18.0,78,0.00,,,0.00,weatherlink.com 1.10,2013-03-04 16:56:00,
2013-03-04 13:11:00,83.2,76.0,29.91,North,5,4.0,16.0,79,0.00,,,0.00,weatherlink.com 1.10,2013-03-04 17:11:00,
2013-03-04 13:26:00,83.0,76.0,29.91,East,80,9.0,16.0,78,0.00,,,0.00,weatherlink.com 1.10,2013-03-04 17:26:00,
2013-03-04 13:41:00,83.4,76.0,29.90,NE,53,4.0,16.0,78,0.00,,,0.00,weatherlink.com 1.10,2013-03-04 17:41:00,
2013-03-04 13:56:00,83.2,75.0,29.90,NE,36,7.0,18.0,77,0.00,,,0.00,weatherlink.com 1.10,2013-03-04 17:56:00,
2013-03-04 14:11:00,83.4,76.0,29.89,SSE,157,5.0,17.0,77,0.00,,,0.00,weatherlink.com 1.10,2013-03-04 18:11:00,
2013-03-04 14:26:00,83.3,75.0,29.88,NE,44,8.0,14.0,77,0.00,,,0.00,weatherlink.com 1.10,2013-03-04 18:26:00,
2013-03-04 14:41:00,83.5,76.0,29.87,ESE,118,7.0,17.0,77,0.00,,,0.00,weatherlink.com 1.10,2013-03-04 18:41:00,
2013-03-04 14:56:00,84.0,76.0,29.86,ENE,65,5.0,14.0,76,0.00,,,0.00,weatherlink.com 1.10,2013-03-04 18:56:00,
2013-03-04 15:11:00,83.3,76.0,29.85,ENE,69,7.0,17.0,78,0.00,,,0.00,weatherlink.com 1.10,2013-03-04 19:11:00,
2013-03-04 15:26:00,83.1,76.0,29.84,East,79,6.0,21.0,78,0.00,,,0.00,weatherlink.com 1.10,2013-03-04 19:26:00,
2013-03-04 15:41:00,83.4,76.0,29.83,NNE,32,5.0,19.0,78,0.00,,,0.00,weatherlink.com 1.10,2013-03-04 19:41:00,
2013-03-04 15:56:00,83.4,76.0,29.83,NE,54,6.0,20.0,77,0.00,,,0.00,weatherlink.com 1.10,2013-03-04 19:56:00,
2013-03-04 16:11:00,83.3,75.0,29.83,ESE,107,11.0,23.0,77,0.00,,,0.00,weatherlink.com 1.10,2013-03-04 20:11:00,
2013-03-04 16:26:00,82.9,75.0,29.83,ENE,71,15.0,20.0,78,0.00,,,0.00,weatherlink.com 1.10,2013-03-04 20:26:00,
2013-03-04 16:41:00,82.7,75.0,29.83,ENE,61,9.0,17.0,78,0.00,,,0.00,weatherlink.com 1.10,2013-03-04 20:41:00,
2013-03-04 16:56:00,82.7,75.0,29.83,ENE,62,2.0,18.0,78,0.00,,,0.00,weatherlink.com 1.10,2013-03-04 20:56:00,
2013-03-04 17:11:00,82.4,75.0,29.83,NNE,17,6.0,25.0,79,0.00,,,0.00,weatherlink.com 1.10,2013-03-04 21:11:00,
2013-03-04 17:26:00,82.4,75.0,29.83,NE,34,8.0,22.0,78,0.00,,,0.00,weatherlink.com 1.10,2013-03-04 21:26:00,
2013-03-04 17:41:00,82.0,75.0,29.83,ENE,61,11.0,22.0,79,0.00,,,0.00,weatherlink.com 1.10,2013-03-04 21:41:00,
2013-03-04 17:56:00,81.6,75.0,29.84,ENE,72,8.0,21.0,79,0.00,,,0.00,weatherlink.com 1.10,2013-03-04 21:56:00,
2013-03-04 18:11:00,80.9,75.0,29.84,East,88,11.0,22.0,81,0.00,,,0.00,weatherlink.com 1.10,2013-03-04 22:11:00,
2013-03-04 18:26:00,80.6,74.0,29.84,East,97,11.0,18.0,81,0.00,,,0.00,weatherlink.com 1.10,2013-03-04 22:26:00,
2013-03-04 18:41:00,80.3,74.0,29.85,ENE,59,8.0,16.0,81,0.00,,,0.00,weatherlink.com 1.10,2013-03-04 22:41:00,
2013-03-04 18:56:00,80.2,74.0,29.85,ENE,75,11.0,17.0,82,0.00,,,0.00,weatherlink.com 1.10,2013-03-04 22:56:00,
2013-03-04 19:11:00,80.2,74.0,29.85,ENE,57,11.0,21.0,82,0.00,,,0.00,weatherlink.com 1.10,2013-03-04 23:11:00,
2013-03-04 19:26:00,80.0,74.0,29.86,ENE,75,11.0,18.0,82,0.00,,,0.00,weatherlink.com 1.10,2013-03-04 23:26:00,
2013-03-04 19:41:00,80.0,74.0,29.86,East,88,5.0,16.0,83,0.00,,,0.00,weatherlink.com 1.10,2013-03-04 23:41:00,
2013-03-04 19:56:00,80.0,74.0,29.86,ENE,57,15.0,16.0,82,0.00,,,0.00,weatherlink.com 1.10,2013-03-04 23:56:00,
2013-03-04 20:11:00,80.0,74.0,29.87,NE,43,6.0,15.0,82,0.00,,,0.00,weatherlink.com 1.10,2013-03-05 00:11:00,
2013-03-04 20:26:00,79.9,74.0,29.88,ENE,59,10.0,18.0,82,0.00,,,0.00,weatherlink.com 1.10,2013-03-05 00:26:00,
2013-03-04 20:41:00,79.9,74.0,29.89,ENE,78,4.0,19.0,82,0.00,,,0.00,weatherlink.com 1.10,2013-03-05 00:41:00,
2013-03-04 20:56:00,79.8,74.0,29.89,ENE,66,13.0,17.0,82,0.00,,,0.00,weatherlink.com 1.10,2013-03-05 00:56:00,
2013-03-04 21:11:00,79.8,74.0,29.89,ENE,61,9.0,15.0,83,0.00,,,0.00,weatherlink.com 1.10,2013-03-05 01:11:00,
2013-03-04 21:26:00,79.8,74.0,29.89,ENE,61,9.0,17.0,83,0.00,,,0.00,weatherlink.com 1.10,2013-03-05 01:26:00,
2013-03-04 21:41:00,79.6,74.0,29.89,ESE,105,14.0,18.0,83,0.00,,,0.00,weatherlink.com 1.10,2013-03-05 01:41:00,
2013-03-04 21:56:00,79.7,74.0,29.89,NE,48,14.0,18.0,83,0.00,,,0.00,weatherlink.com 1.10,2013-03-05 01:56:00,
2013-03-04 22:11:00,79.7,74.0,29.90,East,86,9.0,19.0,83,0.00,,,0.00,weatherlink.com 1.10,2013-03-05 02:11:00,
2013-03-04 22:26:00,79.6,74.0,29.90,ENE,75,12.0,17.0,83,0.00,,,0.00,weatherlink.com 1.10,2013-03-05 02:26:00,
2013-03-04 22:41:00,79.6,74.0,29.91,East,101,6.0,15.0,84,0.00,,,0.00,weatherlink.com 1.10,2013-03-05 02:41:00,
2013-03-04 22:56:00,79.6,74.0,29.91,ENE,76,5.0,18.0,83,0.00,,,0.00,weatherlink.com 1.10,2013-03-05 02:56:00,
2013-03-04 23:11:00,79.8,75.0,29.92,ENE,65,7.0,18.0,84,0.00,,,0.00,weatherlink.com 1.10,2013-03-05 03:11:00,
2013-03-04 23:26:00,79.7,75.0,29.93,ENE,66,13.0,18.0,84,0.00,,,0.00,weatherlink.com 1.10,2013-03-05 03:26:00,
2013-03-04 23:41:00,79.7,75.0,29.93,East,82,5.0,13.0,84,0.00,,,0.00,weatherlink.com 1.10,2013-03-05 03:41:00,
2013-03-04 23:56:00,79.7,75.0,29.93,NE,38,5.0,10.0,84,0.00,,,0.00,weatherlink.com 1.10,2013-03-05 03:56:00,